EDT,Max TemperatureF,Mean TemperatureF,Min TemperatureF,Max Dew PointF,MeanDew PointF,Min DewpointF,Max Humidity, Mean Humidity, Min Humidity, Max Sea Level PressureIn, Mean Sea Level PressureIn, Min Sea Level PressureIn, Max VisibilityMiles, Mean VisibilityMiles, Min VisibilityMiles, Max Wind SpeedMPH, Mean Wind SpeedMPH, Max Gust SpeedMPH,PrecipitationIn, CloudCover, Events, WindDirDegrees
2012-8-1,88,77,66,73,67,63,93,74,55,29.95,29.89,29.83,10,10,7,10,2,15,0.03,2,Rain-Thunderstorm,261
2012-8-2,88,76,64,69,64,62,93,68,43,29.94,29.91,29.87,10,10,6,6,1,8,0.00,0,,162
2012-8-3,80,75,69,72,69,64,100,85,69,30.05,29.99,29.87,10,6,0,8,2,18,1.05,6,Fog-Rain-Thunderstorm,148
2012-8-4,88,79,70,76,71,66,97,79,61,30.09,30.05,29.98,10,9,1,13,2,21,0.18,5,Rain-Thunderstorm,158
2012-8-5,80,75,70,74,70,67,100,90,79,30.19,30.14,30.08,10,8,1,7,1,16,0.11,7,Rain-Thunderstorm,225
2012-8-6,83,77,70,72,70,69,100,85,69,30.18,30.13,30.02,10,5,0,3,0,6,1.73,7,Fog-Rain-Thunderstorm,130
2012-8-7,84,77,70,72,70,67,100,82,63,30.08,30.02,29.96,10,6,0,7,1,10,0.00,5,Fog,120
2012-8-8,89,78,67,71,68,64,100,73,46,30.08,30.01,29.94,10,6,0,7,1,10,0.00,1,Fog,-1
2012-8-9,86,75,64,72,66,61,100,83,65,29.95,29.90,29.81,10,8,0,16,2,23,0.74,3,Fog-Rain-Thunderstorm,130
2012-8-10,82,73,63,72,64,57,100,76,51,29.87,29.81,29.75,10,6,0,12,3,20,0.03,5,Fog-Rain,290
2012-8-11,74,66,58,58,56,55,100,77,53,30.02,29.97,29.89,10,10,8,9,3,16,0.00,2,,304
2012-8-12,79,68,57,60,55,51,93,66,39,30.07,30.04,30.01,10,10,7,6,1,10,0.00,0,,313
2012-8-13,80,71,62,63,59,55,90,69,48,30.04,29.99,29.93,10,10,10,9,1,13,T,2,Rain,150
2012-8-14,82,74,65,70,64,59,90,76,62,29.98,29.92,29.86,10,10,2,7,1,13,0.03,6,Rain-Thunderstorm,248
2012-8-15,79,72,64,67,65,61,100,79,58,30.04,29.98,29.91,10,4,0,3,1,5,0.56,6,Fog-Rain-Thunderstorm,292
2012-8-16,86,74,62,66,62,58,100,72,43,30.11,30.03,29.91,10,7,2,7,1,10,0.00,0,,140
2012-8-17,74,69,64,68,65,60,100,87,73,30.00,29.96,29.86,10,6,0,9,2,15,0.14,6,Fog-Rain,232
2012-8-18,79,70,61,64,61,56,100,73,45,30.01,29.96,29.88,10,5,0,6,1,10,0.00,5,Fog,312
2012-8-19,79,71,62,61,59,55,93,73,52,29.91,29.88,29.83,10,10,4,10,1,20,0.01,5,Rain-Thunderstorm,80
2012-8-20,78,67,56,61,56,49,100,71,41,30.00,29.95,29.88,10,6,0,9,2,14,0.00,2,Fog,277
2012-8-21,79,68,57,61,56,53,93,68,42,30.10,30.05,30.00,10,9,2,10,1,18,0.14,2,Rain,301
2012-8-22,81,69,57,61,56,52,93,65,36,30.16,30.11,30.08,10,10,8,6,0,8,0.00,0,,120
2012-8-23,84,72,59,61,57,51,90,63,36,30.19,30.12,30.08,10,10,8,5,0,7,0.00,0,,120
2012-8-24,85,74,63,65,60,57,90,67,44,30.15,30.10,30.05,10,10,10,8,2,12,0.00,0,,143
2012-8-25,86,75,63,65,61,59,87,65,43,30.15,30.10,30.07,10,10,9,6,2,10,0.00,0,,144
2012-8-26,87,75,63,67,63,60,93,69,44,30.18,30.12,30.06,10,10,8,6,2,9,0.00,0,,120
2012-8-27,89,78,66,66,63,61,87,65,43,30.13,30.05,29.97,10,10,10,8,1,14,0.00,2,,190
2012-8-28,81,76,70,70,68,66,97,80,62,30.09,30.01,29.97,10,9,4,5,0,13,T,6,,-1
2012-8-29,84,74,64,66,60,56,90,68,46,30.06,30.01,29.97,10,10,8,6,0,10,0.00,1,,-1
2012-8-30,88,75,61,67,60,54,78,61,43,30.11,30.06,30.01,10,10,10,5,1,,0.00,0,,130
2012-8-31,89,80,71,72,69,67,90,74,57,30.22,30.15,30.11,10,10,10,8,1,14,T,1,Rain,220